Change the Weather History Date:

Thursday, January 26, 2012

  Actual Average Record
Temperature  
Mean Temperature 59 °F 52 °F  
Max Temperature 65 °F 63 °F 83 °F (1909)
Min Temperature 53 °F 42 °F 17 °F (1905)
Degree Days  
Heating Degree Days 6 13  
Month to date heating degree days 205 361  
Since 1 July heating degree days 816 977  
Cooling Degree Days 0 0  
Month to date cooling degree days 38 3  
Year to date cooling degree days 38 3  
Growing Degree Days 8 (Base 50)    
Moisture  
Dew Point 57 °F    
Average Humidity 84    
Maximum Humidity 100    
Minimum Humidity 67    
Precipitation  
Precipitation 1.91 in 0.19 in 3.94 in (1996)
Month to date precipitation 5.73 4.77  
Year to date precipitation 5.73 4.77  
Snow  
Snow 0.00 in - - ()
Month to date snowfall 0.0  
Since 1 July snowfall 0.0  
Snow Depth 0.00 in    
Sea Level Pressure  
Sea Level Pressure 29.88 in    
Wind  
Wind Speed 8 mph (West)    
Max Wind Speed 21 mph    
Max Gust Speed 32 mph    
Visibility 7 miles    
Events Rain    
T = Trace of Precipitation, MM = Missing Value Source: NWS Daily Summary

Daily Weather History Graph

Daily Weather History Graph

Search for Another Location

Airport or City:

Trip Planner

Search our weather history database for the weather conditions in past years. The results will help you decide how hot, cold, wet, or windy it might be!

Date:

Astronomy

Jan. 26, 2012 Rise Set
Actual Time 6:59 AM CST 5:35 PM CST
Civil Twilight 6:33 AM CST 6:00 PM CST
Nautical Twilight 6:04 AM CST 6:29 PM CST
Astronomical Twilight 5:35 AM CST 6:58 PM CST
Moon 8:45 AM CST (1/26) 9:07 PM CST (1/26)
Length of Visible Light 11h 27m
Length of Day
10h 36m
Waxing Crescent, 12% of the Moon is Illuminated
Jan 26
Waxing Crescent
Jan 30
First Quarter
Feb 7
Full
Feb 14
Last Quarter
Feb 21
New

Hourly Weather History & Observations

Time (CST) Temp. Dew Point Humidity Pressure Visibility Wind Dir Wind Speed Gust Speed Precip Events Conditions
12:02 AM 62.6 °F 62.6 °F 100% 29.91 in 1.0 mi SSW 9.2 mph - 0.35 in Rain Heavy Rain
12:19 AM 62.6 °F 62.6 °F 100% 29.89 in 3.0 mi WSW 12.7 mph - 0.74 in Rain Heavy Rain
12:27 AM 62.6 °F 62.6 °F 100% 29.88 in 1.8 mi West 10.4 mph - 0.86 in Rain Heavy Rain
12:42 AM 62.6 °F 62.6 °F 100% 29.88 in 2.0 mi Calm Calm - 1.12 in Rain Rain
12:51 AM 62.6 °F 62.6 °F 100% 29.89 in 5.0 mi ESE 8.1 mph - 1.15 in Rain Rain
12:53 AM 63.0 °F 61.0 °F 93% 29.90 in 5.0 mi East 5.8 mph - 1.15 in Rain Rain
1:07 AM 62.6 °F 62.6 °F 100% 29.89 in 1.8 mi SSW 3.5 mph - 0.09 in Rain Heavy Rain
1:29 AM 62.6 °F 62.6 °F 100% 29.90 in 2.0 mi SW 9.2 mph - 0.42 in Rain Heavy Rain
1:32 AM 62.6 °F 62.6 °F 100% 29.90 in 1.8 mi SW 8.1 mph - 0.47 in Rain Heavy Rain
1:53 AM 62.1 °F 62.1 °F 100% 29.90 in 3.0 mi WSW 6.9 mph - 0.70 in Rain Heavy Rain
2:53 AM 61.0 °F 61.0 °F 100% 29.83 in 10.0 mi ENE 6.9 mph - 0.08 in   Scattered Clouds
3:53 AM 61.0 °F 61.0 °F 100% 29.85 in 10.0 mi East 5.8 mph - N/A   Overcast
4:12 AM 60.8 °F 60.8 °F 100% 29.86 in 2.0 mi West 3.5 mph - 0.07 in Rain Heavy Rain
4:19 AM 60.8 °F 60.8 °F 100% 29.87 in 4.0 mi West 4.6 mph - 0.08 in Rain Rain
4:53 AM 61.0 °F 60.1 °F 97% 29.86 in 4.0 mi NW 3.5 mph - 0.16 in Rain Rain
5:20 AM 60.8 °F 60.8 °F 100% 29.86 in 9.0 mi West 4.6 mph - 0.03 in Rain Light Rain
5:53 AM 61.0 °F 61.0 °F 100% 29.86 in 10.0 mi Calm Calm - 0.04 in Rain Light Rain
6:46 AM 60.8 °F 60.8 °F 100% 29.84 in 2.5 mi Calm Calm - 0.00 in   Clear
6:53 AM 60.1 °F 60.1 °F 100% 29.84 in 2.5 mi Calm Calm - 0.00 in   Clear
7:03 AM 60.8 °F 60.8 °F 100% 29.84 in 3.0 mi East 3.5 mph - N/A   Partly Cloudy
7:51 AM 60.8 °F 60.8 °F 100% 29.83 in 2.5 mi Calm Calm - N/A   Overcast
7:53 AM 60.1 °F 60.1 °F 100% 29.83 in 3.0 mi Calm Calm - N/A   Overcast
8:09 AM 60.8 °F 60.8 °F 100% 29.86 in 5.0 mi Calm Calm - N/A   Overcast
8:53 AM 62.1 °F 62.1 °F 100% 29.86 in 7.0 mi Calm Calm - 0.00 in   Scattered Clouds
9:30 AM 62.6 °F 60.8 °F 94% 29.87 in 10.0 mi West 12.7 mph - N/A   Mostly Cloudy
9:53 AM 64.9 °F 61.0 °F 87% 29.86 in 10.0 mi WSW 13.8 mph - N/A   Mostly Cloudy
10:48 AM 64.4 °F 57.2 °F 77% 29.88 in 10.0 mi West 15.0 mph - N/A   Scattered Clouds
10:53 AM 64.9 °F 57.0 °F 75% 29.88 in 10.0 mi West 15.0 mph - N/A   Mostly Cloudy
11:49 AM 64.4 °F 55.4 °F 73% 29.87 in 10.0 mi West 19.6 mph 25.3 mph N/A   Scattered Clouds
11:53 AM 64.0 °F 55.0 °F 73% 29.86 in 10.0 mi West 19.6 mph 25.3 mph N/A   Mostly Cloudy
12:14 PM 62.6 °F 55.4 °F 77% 29.86 in 10.0 mi West 17.3 mph - N/A   Mostly Cloudy
12:21 PM 62.6 °F 55.4 °F 77% 29.86 in 10.0 mi West 16.1 mph 21.9 mph N/A   Mostly Cloudy
12:53 PM 60.1 °F 53.1 °F 78% 29.86 in 10.0 mi West 15.0 mph - N/A   Mostly Cloudy
1:53 PM 60.1 °F 53.1 °F 78% 29.84 in 10.0 mi West 10.4 mph - N/A   Mostly Cloudy
2:53 PM 62.1 °F 51.1 °F 67% 29.83 in 10.0 mi West 11.5 mph - N/A   Scattered Clouds
3:53 PM 61.0 °F 50.0 °F 67% 29.83 in 10.0 mi West 10.4 mph - N/A   Partly Cloudy
4:53 PM 57.9 °F 48.9 °F 72% 29.87 in 10.0 mi WNW 12.7 mph - N/A   Mostly Cloudy
5:53 PM 57.0 °F 48.0 °F 72% 29.89 in 10.0 mi West 10.4 mph - N/A   Overcast
6:53 PM 55.9 °F 48.9 °F 77% 29.91 in 10.0 mi WNW 6.9 mph - N/A   Overcast
7:53 PM 55.9 °F 48.0 °F 75% 29.92 in 10.0 mi WNW 10.4 mph - N/A   Overcast
8:10 PM 55.4 °F 48.2 °F 77% 29.93 in 10.0 mi WNW 11.5 mph 20.7 mph N/A   Overcast
8:20 PM 53.6 °F 48.2 °F 82% 29.93 in 10.0 mi WNW 12.7 mph 21.9 mph N/A   Overcast
8:53 PM 54.0 °F 48.9 °F 83% 29.94 in 10.0 mi WNW 11.5 mph - N/A   Overcast
9:53 PM 54.0 °F 48.0 °F 80% 29.97 in 10.0 mi WNW 9.2 mph - N/A   Overcast
10:53 PM 54.0 °F 48.0 °F 80% 29.99 in 10.0 mi NW 8.1 mph - N/A   Overcast
11:14 PM 53.6 °F 48.2 °F 82% 29.99 in 10.0 mi WNW 5.8 mph - N/A   Overcast
11:53 PM 53.1 °F 48.0 °F 83% 30.00 in 10.0 mi WNW 10.4 mph - N/A   Overcast